This demonstration page uses our WeatherBlox Daily Observations layout. Learn more.

Left ArrowRight Arrow

Hourly Observations for June 25, 2019

Temp ( °F °C ) Dew Point ( °F °C ) Humidity (%) Winds ( mph kmh ) Pressure ( in mb ) Visibility ( mi km ) Precip ( " mm )
12:56 am 00:56 Clear 63 17.2 57 13.9 81 81 S 7 11 29.72 1007 10 16 0.00 0.03
1:56 am 01:56 Clear 67 19.4 57 13.9 71 71 SW 9 15 29.73 1007 10 16 0.00 0.00
2:24 am 02:24 Mostly Cloudy with Light Rain 66 19 55 13 68 68 NW 18 30 29.78 1009 10 16 0.00 0.03
2:56 am 02:56 Clear 65 18.3 54 12.2 68 68 N 17 28 29.80 1009 10 16 0.00 0.03
3:56 am 03:56 Clear 60 15.6 54 12.2 80 80 NE 8 13 29.82 1010 10 16 0.00 0.00
4:56 am 04:56 Clear 61 16.1 55 12.8 81 81 S 5 7 29.85 1011 10 16 0.00 0.00
5:56 am 05:56 Clear 59 15 55 12.8 87 87 S 6 9 29.88 1012 10 16 0.00 0.00
6:56 am 06:56 Sunny 60 15.6 55 12.8 84 84 SSE 9 15 29.86 1011 10 16 0.00 0.00
7:56 am 07:56 Sunny 64 17.8 57 13.9 78 78 E 6 9 29.87 1011 10 16 0.00 0.00
8:56 am 08:56 Sunny 68 20 58 14.4 70 70 E 8 13 29.87 1012 10 16 0.00 0.00
9:56 am 09:56 Sunny 71 21.7 59 15 66 66 E 9 15 29.89 1012 10 16 0.00 0.00
10:56 am 10:56 Sunny 74 23.3 62 16.7 67 67 E 7 11 29.89 1012 10 16 0.00 0.00
11:56 am 11:56 Sunny 77 25 60 15.6 56 56 SSE 7 11 29.89 1012 10 16 0.00 0.00
12:56 pm 12:56 Sunny 79 26.1 62 16.7 56 56 S 7 11 29.90 1012 8 13 0.00 0.00
2:56 pm 14:56 Sunny 83 28.3 64 17.8 53 53 SSE 6 9 29.87 1011 10 16 0.00 0.00
3:56 pm 15:56 Sunny 86 30 64 17.8 48 48 VRB 5 7 29.85 1011 10 16 0.00 0.00
4:56 pm 16:56 Sunny 86 30 66 18.9 51 51 NNE 9 15 29.82 1010 10 16 0.00 0.00
5:56 pm 17:56 Sunny 86 30 65 18.3 49 49 NNE 12 19 29.83 1010 10 16 0.00 0.00
6:56 pm 18:56 Sunny 78 25.6 63 17.2 60 60 ESE 10 17 29.85 1011 10 16 0.00 0.00
7:56 pm 19:56 Sunny 76 24.4 60 15.6 58 58 E 16 26 29.87 1012 10 16 0.00 0.00
8:56 pm 20:56 Sunny 69 20.6 60 15.6 73 73 E 6 9 29.89 1012 10 16 0.00 0.00
9:56 pm 21:56 Clear 66 18.9 61 16.1 84 84 E 5 7 29.89 1012 10 16 0.00 0.00
10:56 pm 22:56 Mostly Cloudy 66 18.9 61 16.1 84 84 ESE 3 6 29.93 1014 10 16 0.00 0.00
11:56 pm 23:56 Clear 65 18.3 61 16.1 87 87 ESE 3 6 29.92 1013 10 16 0.00 0.00

Powered by AerisWeather